Year,Month,Day,Hour,Minute,Value (Times are PST for temperature in C)
2016,06,05,00,00,20.10
2016,06,05,00,01,20.20
2016,06,05,00,02,20.20
2016,06,05,00,03,20.20
2016,06,05,00,04,20.20
2016,06,05,00,05,20.20
2016,06,05,00,06,20.20
2016,06,05,00,07,20.20
2016,06,05,00,08,20.20
2016,06,05,00,09,20.20
2016,06,05,00,10,20.20
2016,06,05,00,11,20.30
2016,06,05,00,12,20.30
2016,06,05,00,13,20.30
2016,06,05,00,14,20.40
2016,06,05,00,15,20.40
2016,06,05,00,16,20.40
2016,06,05,00,17,20.50
2016,06,05,00,18,20.50
2016,06,05,00,19,20.50
2016,06,05,00,20,20.50
2016,06,05,00,21,20.40
2016,06,05,00,22,20.40
2016,06,05,00,23,20.30
2016,06,05,00,24,20.30
2016,06,05,00,25,20.20
2016,06,05,00,26,20.20
2016,06,05,00,27,20.20
2016,06,05,00,28,20.20
2016,06,05,00,29,20.20
2016,06,05,00,30,20.20
2016,06,05,00,31,20.20
2016,06,05,00,32,20.20
2016,06,05,00,33,20.20
2016,06,05,00,34,20.20
2016,06,05,00,35,20.20
2016,06,05,00,36,20.20
2016,06,05,00,37,20.20
2016,06,05,00,38,20.20
2016,06,05,00,39,20.20
2016,06,05,00,40,20.10
2016,06,05,00,41,20.10
2016,06,05,00,42,20.10
2016,06,05,00,43,20.00
2016,06,05,00,44,19.90
2016,06,05,00,45,19.90
2016,06,05,00,46,19.90
2016,06,05,00,47,19.80
2016,06,05,00,48,19.70
2016,06,05,00,49,19.70
2016,06,05,00,50,19.60
2016,06,05,00,51,19.50
2016,06,05,00,52,19.50
2016,06,05,00,53,19.40
2016,06,05,00,54,19.40
2016,06,05,00,55,19.50
2016,06,05,00,56,19.50
2016,06,05,00,57,19.50
2016,06,05,00,58,19.50
2016,06,05,00,59,19.50
2016,06,05,01,00,19.50
2016,06,05,01,01,19.50
2016,06,05,01,02,19.40
2016,06,05,01,03,19.40
2016,06,05,01,04,19.40
2016,06,05,01,05,19.30
2016,06,05,01,06,19.30
2016,06,05,01,07,19.20
2016,06,05,01,08,19.20
2016,06,05,01,09,19.10
2016,06,05,01,10,19.10
2016,06,05,01,11,19.10
2016,06,05,01,12,19.10
2016,06,05,01,13,19.10
2016,06,05,01,14,19.20
2016,06,05,01,15,19.20
2016,06,05,01,16,19.30
2016,06,05,01,17,19.40
2016,06,05,01,18,19.40
2016,06,05,01,19,19.50
2016,06,05,01,20,19.50
2016,06,05,01,21,19.60
2016,06,05,01,22,19.60
2016,06,05,01,23,19.60
2016,06,05,01,24,19.70
2016,06,05,01,25,19.70
2016,06,05,01,26,19.80
2016,06,05,01,27,19.80
2016,06,05,01,28,19.90
2016,06,05,01,29,19.90
2016,06,05,01,30,19.90
2016,06,05,01,31,20.00
2016,06,05,01,32,20.10
2016,06,05,01,33,20.10
2016,06,05,01,34,20.10
2016,06,05,01,35,20.20
2016,06,05,01,36,20.20
2016,06,05,01,37,20.20
2016,06,05,01,38,20.20
2016,06,05,01,39,20.20
2016,06,05,01,40,20.20
2016,06,05,01,41,20.20
2016,06,05,01,42,20.20
2016,06,05,01,43,20.20
2016,06,05,01,44,20.20
2016,06,05,01,45,20.20
2016,06,05,01,46,20.20
2016,06,05,01,47,20.20
2016,06,05,01,48,20.20
2016,06,05,01,49,20.20
2016,06,05,01,50,20.20
2016,06,05,01,51,20.20
2016,06,05,01,52,20.20
2016,06,05,01,53,20.20
2016,06,05,01,54,20.30
2016,06,05,01,55,20.30
2016,06,05,01,56,20.30
2016,06,05,01,57,20.30
2016,06,05,01,58,20.30
2016,06,05,01,59,20.30
2016,06,05,02,00,20.30
2016,06,05,02,01,20.20
2016,06,05,02,02,20.20
2016,06,05,02,03,20.20
2016,06,05,02,04,20.20
2016,06,05,02,05,20.20
2016,06,05,02,06,20.20
2016,06,05,02,07,20.20
2016,06,05,02,08,20.20
2016,06,05,02,09,20.20
2016,06,05,02,10,20.20
2016,06,05,02,11,20.20
2016,06,05,02,12,20.20
2016,06,05,02,13,20.10
2016,06,05,02,14,20.10
2016,06,05,02,15,20.10
2016,06,05,02,16,20.10
2016,06,05,02,17,20.10
2016,06,05,02,18,20.10
2016,06,05,02,19,20.10
2016,06,05,02,20,20.00
2016,06,05,02,21,19.90
2016,06,05,02,22,19.90
2016,06,05,02,23,19.90
2016,06,05,02,24,19.90
2016,06,05,02,25,19.90
2016,06,05,02,26,19.90
2016,06,05,02,27,19.80
2016,06,05,02,28,19.80
2016,06,05,02,29,19.70
2016,06,05,02,30,19.70
2016,06,05,02,31,19.60
2016,06,05,02,32,19.60
2016,06,05,02,33,19.60
2016,06,05,02,34,19.50
2016,06,05,02,35,19.50
2016,06,05,02,36,19.40
2016,06,05,02,37,19.40
2016,06,05,02,38,19.40
2016,06,05,02,39,19.40
2016,06,05,02,40,19.40
2016,06,05,02,41,19.40
2016,06,05,02,42,19.50
2016,06,05,02,43,19.50
2016,06,05,02,44,19.50
2016,06,05,02,45,19.50
2016,06,05,02,46,19.60
2016,06,05,02,47,19.60
2016,06,05,02,48,19.60
2016,06,05,02,49,19.70
2016,06,05,02,50,19.70
2016,06,05,02,51,19.70
2016,06,05,02,52,19.70
2016,06,05,02,53,19.70
2016,06,05,02,54,19.70
2016,06,05,02,55,19.70
2016,06,05,02,56,19.70
2016,06,05,02,57,19.60
2016,06,05,02,58,19.60
2016,06,05,02,59,19.50
2016,06,05,03,00,19.50
2016,06,05,03,01,19.40
2016,06,05,03,02,19.40
2016,06,05,03,03,19.40
2016,06,05,03,04,19.30
2016,06,05,03,05,19.30
2016,06,05,03,06,19.30
2016,06,05,03,07,19.30
2016,06,05,03,08,19.20
2016,06,05,03,09,19.20
2016,06,05,03,10,19.20
2016,06,05,03,11,19.10
2016,06,05,03,12,19.10
2016,06,05,03,13,19.10
2016,06,05,03,14,19.10
2016,06,05,03,15,19.00
2016,06,05,03,16,18.90
2016,06,05,03,17,18.90
2016,06,05,03,18,18.90
2016,06,05,03,19,18.90
2016,06,05,03,20,18.90
2016,06,05,03,21,18.90
2016,06,05,03,22,18.90
2016,06,05,03,23,18.80
2016,06,05,03,24,18.80
2016,06,05,03,25,18.80
2016,06,05,03,26,18.80
2016,06,05,03,27,18.80
2016,06,05,03,28,18.80
2016,06,05,03,29,18.80
2016,06,05,03,30,18.90
2016,06,05,03,31,18.90
2016,06,05,03,32,18.90
2016,06,05,03,33,18.90
2016,06,05,03,34,18.90
2016,06,05,03,35,19.00
2016,06,05,03,36,19.10
2016,06,05,03,37,19.10
2016,06,05,03,38,19.10
2016,06,05,03,39,19.10
2016,06,05,03,40,19.10
2016,06,05,03,41,19.10
2016,06,05,03,42,19.10
2016,06,05,03,43,19.10
2016,06,05,03,44,19.10
2016,06,05,03,45,19.10
2016,06,05,03,46,19.10
2016,06,05,03,47,19.20
2016,06,05,03,48,19.20
2016,06,05,03,49,19.20
2016,06,05,03,50,19.20
2016,06,05,03,51,19.20
2016,06,05,03,52,19.20
2016,06,05,03,53,19.20
2016,06,05,03,54,19.20
2016,06,05,03,55,19.20
2016,06,05,03,56,19.30
2016,06,05,03,57,19.30
2016,06,05,03,58,19.30
2016,06,05,03,59,19.30
2016,06,05,04,00,19.30
2016,06,05,04,01,19.40
2016,06,05,04,02,19.40
2016,06,05,04,03,19.40
2016,06,05,04,04,19.40
2016,06,05,04,05,19.40
2016,06,05,04,06,19.40
2016,06,05,04,07,19.40
2016,06,05,04,08,19.40
2016,06,05,04,09,19.40
2016,06,05,04,10,19.30
2016,06,05,04,11,19.30
2016,06,05,04,12,19.30
2016,06,05,04,13,19.30
2016,06,05,04,14,19.30
2016,06,05,04,15,19.30
2016,06,05,04,16,19.30
2016,06,05,04,17,19.30
2016,06,05,04,18,19.30
2016,06,05,04,19,19.20
2016,06,05,04,20,19.20
2016,06,05,04,21,19.20
2016,06,05,04,22,19.20
2016,06,05,04,23,19.20
2016,06,05,04,24,19.20
2016,06,05,04,25,19.20
2016,06,05,04,26,19.20
2016,06,05,04,27,19.20
2016,06,05,04,28,19.20
2016,06,05,04,29,19.20
2016,06,05,04,30,19.30
2016,06,05,04,31,19.30
2016,06,05,04,32,19.40
2016,06,05,04,33,19.40
2016,06,05,04,34,19.40
2016,06,05,04,35,19.40
2016,06,05,04,36,19.40
2016,06,05,04,37,19.40
2016,06,05,04,38,19.40
2016,06,05,04,39,19.40
2016,06,05,04,40,19.40
2016,06,05,04,41,19.40
2016,06,05,04,42,19.30
2016,06,05,04,43,19.20
2016,06,05,04,44,19.20
2016,06,05,04,45,19.10
2016,06,05,04,46,19.10
2016,06,05,04,47,19.10
2016,06,05,04,48,19.10
2016,06,05,04,49,19.10
2016,06,05,04,50,19.10
2016,06,05,04,51,19.10
2016,06,05,04,52,19.10
2016,06,05,04,53,19.10
2016,06,05,04,54,19.10
2016,06,05,04,55,19.10
2016,06,05,04,56,19.10
2016,06,05,04,57,19.10
2016,06,05,04,58,19.10
2016,06,05,04,59,19.10
2016,06,05,05,00,19.10
2016,06,05,05,01,19.10
2016,06,05,05,02,19.10
2016,06,05,05,03,19.10
2016,06,05,05,04,19.10
2016,06,05,05,05,19.10
2016,06,05,05,06,19.00
2016,06,05,05,07,18.90
2016,06,05,05,08,18.90
2016,06,05,05,09,18.90
2016,06,05,05,10,18.90
2016,06,05,05,11,18.80
2016,06,05,05,12,18.80
2016,06,05,05,13,18.70
2016,06,05,05,14,18.70
2016,06,05,05,15,18.60
2016,06,05,05,16,18.60
2016,06,05,05,17,18.60
2016,06,05,05,18,18.50
2016,06,05,05,19,18.50
2016,06,05,05,20,18.50
2016,06,05,05,21,18.40
2016,06,05,05,22,18.40
2016,06,05,05,23,18.40
2016,06,05,05,24,18.30
2016,06,05,05,25,18.30
2016,06,05,05,26,18.20
2016,06,05,05,27,18.20
2016,06,05,05,28,18.20
2016,06,05,05,29,18.20
2016,06,05,05,30,18.20
2016,06,05,05,31,18.10
2016,06,05,05,32,18.10
2016,06,05,05,33,18.00
2016,06,05,05,34,17.90
2016,06,05,05,35,17.90
2016,06,05,05,36,17.90
2016,06,05,05,37,17.90
2016,06,05,05,38,17.90
2016,06,05,05,39,17.80
2016,06,05,05,40,17.80
2016,06,05,05,41,17.80
2016,06,05,05,42,17.80
2016,06,05,05,43,17.80
2016,06,05,05,44,17.80
2016,06,05,05,45,17.80
2016,06,05,05,46,17.80
2016,06,05,05,47,17.80
2016,06,05,05,48,17.90
2016,06,05,05,49,17.90
2016,06,05,05,50,17.90
2016,06,05,05,51,17.90
2016,06,05,05,52,17.90
2016,06,05,05,53,17.90
2016,06,05,05,54,17.90
2016,06,05,05,55,17.90
2016,06,05,05,56,17.80
2016,06,05,05,57,17.80
2016,06,05,05,58,17.80
2016,06,05,05,59,17.80
2016,06,05,06,00,17.80
2016,06,05,06,01,17.80
2016,06,05,06,02,17.80
2016,06,05,06,03,17.80
2016,06,05,06,04,17.80
2016,06,05,06,05,17.70
2016,06,05,06,06,17.70
2016,06,05,06,07,17.70
2016,06,05,06,08,17.70
2016,06,05,06,09,17.70
2016,06,05,06,10,17.70
2016,06,05,06,11,17.70
2016,06,05,06,12,17.70
2016,06,05,06,13,17.70
2016,06,05,06,14,17.70
2016,06,05,06,15,17.70
2016,06,05,06,16,17.70
2016,06,05,06,17,17.70
2016,06,05,06,18,17.70
2016,06,05,06,19,17.70
2016,06,05,06,20,17.70
2016,06,05,06,21,17.80
2016,06,05,06,22,17.80
2016,06,05,06,23,17.80
2016,06,05,06,24,17.80
2016,06,05,06,25,17.90
2016,06,05,06,26,17.90
2016,06,05,06,27,17.90
2016,06,05,06,28,18.00
2016,06,05,06,29,18.10
2016,06,05,06,30,18.10
2016,06,05,06,31,18.10
2016,06,05,06,32,18.20
2016,06,05,06,33,18.20
2016,06,05,06,34,18.20
2016,06,05,06,35,18.20
2016,06,05,06,36,18.30
2016,06,05,06,37,18.30
2016,06,05,06,38,18.30
2016,06,05,06,39,18.30
2016,06,05,06,40,18.40
2016,06,05,06,41,18.40
2016,06,05,06,42,18.40
2016,06,05,06,43,18.40
2016,06,05,06,44,18.50
2016,06,05,06,45,18.50
2016,06,05,06,46,18.60
2016,06,05,06,47,18.60
2016,06,05,06,48,18.70
2016,06,05,06,49,18.70
2016,06,05,06,50,18.80
2016,06,05,06,51,18.80
2016,06,05,06,52,18.80
2016,06,05,06,53,18.80
2016,06,05,06,54,18.80
2016,06,05,06,55,18.90
2016,06,05,06,56,18.90
2016,06,05,06,57,18.90
2016,06,05,06,58,18.90
2016,06,05,06,59,18.90
2016,06,05,07,00,18.90
2016,06,05,07,01,19.10
2016,06,05,07,02,19.10
2016,06,05,07,03,19.10
2016,06,05,07,04,19.10
2016,06,05,07,05,19.10
2016,06,05,07,06,19.10
2016,06,05,07,07,19.10
2016,06,05,07,08,19.10
2016,06,05,07,09,19.20
2016,06,05,07,10,19.20
2016,06,05,07,11,19.20
2016,06,05,07,12,19.30
2016,06,05,07,13,19.30
2016,06,05,07,14,19.40
2016,06,05,07,15,19.40
2016,06,05,07,16,19.40
2016,06,05,07,17,19.40
2016,06,05,07,18,19.40
2016,06,05,07,19,19.40
2016,06,05,07,20,19.40
2016,06,05,07,21,19.40
2016,06,05,07,22,19.50
2016,06,05,07,23,19.50
2016,06,05,07,24,19.50
2016,06,05,07,25,19.50
2016,06,05,07,26,19.60
2016,06,05,07,27,19.60
2016,06,05,07,28,19.70
2016,06,05,07,29,19.70
2016,06,05,07,30,19.70
2016,06,05,07,31,19.80
2016,06,05,07,32,19.80
2016,06,05,07,33,19.80
2016,06,05,07,34,19.80
2016,06,05,07,35,19.80
2016,06,05,07,36,19.70
2016,06,05,07,37,19.70
2016,06,05,07,38,19.70
2016,06,05,07,39,19.70
2016,06,05,07,40,19.80
2016,06,05,07,41,19.80
2016,06,05,07,42,19.80
2016,06,05,07,43,19.80
2016,06,05,07,44,19.80
2016,06,05,07,45,19.90
2016,06,05,07,46,19.90
2016,06,05,07,47,19.90
2016,06,05,07,48,20.00
2016,06,05,07,49,20.10
2016,06,05,07,50,20.10
2016,06,05,07,51,20.10
2016,06,05,07,52,20.20
2016,06,05,07,53,20.20
2016,06,05,07,54,20.20
2016,06,05,07,55,20.20
2016,06,05,07,56,20.30
2016,06,05,07,57,20.30
2016,06,05,07,58,20.40
2016,06,05,07,59,20.40
2016,06,05,08,00,20.50
2016,06,05,08,01,20.50
2016,06,05,08,02,20.60
2016,06,05,08,03,20.60
2016,06,05,08,04,20.60
2016,06,05,08,05,20.60
2016,06,05,08,06,20.60
2016,06,05,08,07,20.60
2016,06,05,08,08,20.70
2016,06,05,08,09,20.70
2016,06,05,08,10,20.70
2016,06,05,08,11,20.60
2016,06,05,08,12,20.60
2016,06,05,08,13,20.60
2016,06,05,08,14,20.50
2016,06,05,08,15,20.50
2016,06,05,08,16,20.50
2016,06,05,08,17,20.50
2016,06,05,08,18,20.50
2016,06,05,08,19,20.50
2016,06,05,08,20,20.50
2016,06,05,08,21,20.50
2016,06,05,08,22,20.50
2016,06,05,08,23,20.50
2016,06,05,08,24,20.50
2016,06,05,08,25,20.50
2016,06,05,08,26,20.60
2016,06,05,08,27,20.50
2016,06,05,08,28,20.50
2016,06,05,08,29,20.40
2016,06,05,08,30,20.40
2016,06,05,08,31,20.30
2016,06,05,08,32,20.30
2016,06,05,08,33,20.20
2016,06,05,08,34,20.20
2016,06,05,08,35,20.20
2016,06,05,08,36,20.20
2016,06,05,08,37,20.10
2016,06,05,08,38,20.10
2016,06,05,08,39,20.00
2016,06,05,08,40,19.90
2016,06,05,08,41,19.90
2016,06,05,08,42,19.90
2016,06,05,08,43,19.90
2016,06,05,08,44,19.90
2016,06,05,08,45,19.90
2016,06,05,08,46,20.00
2016,06,05,08,47,20.10
2016,06,05,08,48,20.10
2016,06,05,08,49,20.10
2016,06,05,08,50,20.20
2016,06,05,08,51,20.20
2016,06,05,08,52,20.20
2016,06,05,08,53,20.30
2016,06,05,08,54,20.30
2016,06,05,08,55,20.40
2016,06,05,08,56,20.50
2016,06,05,08,57,20.50
2016,06,05,08,58,20.50
2016,06,05,08,59,20.60
2016,06,05,09,00,20.60
2016,06,05,09,01,20.70
2016,06,05,09,02,20.70
2016,06,05,09,03,20.80
2016,06,05,09,04,20.80
2016,06,05,09,05,20.80
2016,06,05,09,06,20.80
2016,06,05,09,07,20.80
2016,06,05,09,08,20.80
2016,06,05,09,09,20.80
2016,06,05,09,10,20.70
2016,06,05,09,11,20.60
2016,06,05,09,12,20.50
2016,06,05,09,13,20.40
2016,06,05,09,14,20.30
2016,06,05,09,15,20.20
2016,06,05,09,16,20.20
2016,06,05,09,17,20.20
2016,06,05,09,18,20.20
2016,06,05,09,19,20.30
2016,06,05,09,20,20.30
2016,06,05,09,21,20.30
2016,06,05,09,22,20.40
2016,06,05,09,23,20.50
2016,06,05,09,24,20.50
2016,06,05,09,25,20.60
2016,06,05,09,26,20.70
2016,06,05,09,27,20.80
2016,06,05,09,28,20.80
2016,06,05,09,29,20.90
2016,06,05,09,30,21.00
2016,06,05,09,31,21.10
2016,06,05,09,32,21.10
2016,06,05,09,33,21.20
2016,06,05,09,34,21.30
2016,06,05,09,35,21.30
2016,06,05,09,36,21.40
2016,06,05,09,37,21.50
2016,06,05,09,38,21.60
2016,06,05,09,39,21.70
2016,06,05,09,40,21.80
2016,06,05,09,41,21.90
2016,06,05,09,42,22.00
2016,06,05,09,43,22.10
2016,06,05,09,44,22.20
2016,06,05,09,45,22.20
2016,06,05,09,46,22.20
2016,06,05,09,47,22.30
2016,06,05,09,48,22.30
2016,06,05,09,49,22.20
2016,06,05,09,50,22.20
2016,06,05,09,51,22.20
2016,06,05,09,52,22.20
2016,06,05,09,53,22.10
2016,06,05,09,54,22.10
2016,06,05,09,55,22.10
2016,06,05,09,56,22.10
2016,06,05,09,57,22.10
2016,06,05,09,58,22.10
2016,06,05,09,59,22.00
2016,06,05,10,00,22.00
2016,06,05,10,01,22.10
2016,06,05,10,02,22.10
2016,06,05,10,03,22.10
2016,06,05,10,04,22.10
2016,06,05,10,05,22.20
2016,06,05,10,06,22.20
2016,06,05,10,07,22.20
2016,06,05,10,08,22.20
2016,06,05,10,09,22.20
2016,06,05,10,10,22.20
2016,06,05,10,11,22.20
2016,06,05,10,12,22.10
2016,06,05,10,13,22.10
2016,06,05,10,14,22.00
2016,06,05,10,15,22.10
2016,06,05,10,16,22.10
2016,06,05,10,17,22.20
2016,06,05,10,18,22.20
2016,06,05,10,19,22.30
2016,06,05,10,20,22.30
2016,06,05,10,21,22.40
2016,06,05,10,22,22.40
2016,06,05,10,23,22.50
2016,06,05,10,24,22.60
2016,06,05,10,25,22.60
2016,06,05,10,26,22.60
2016,06,05,10,27,22.70
2016,06,05,10,28,22.80
2016,06,05,10,29,22.90
2016,06,05,10,30,22.90
2016,06,05,10,31,23.00
2016,06,05,10,32,23.10
2016,06,05,10,33,23.20
2016,06,05,10,34,23.30
2016,06,05,10,35,23.30
2016,06,05,10,36,23.30
2016,06,05,10,37,23.30
2016,06,05,10,38,23.30
2016,06,05,10,39,23.20
2016,06,05,10,40,23.10
2016,06,05,10,41,23.10
2016,06,05,10,42,22.90
2016,06,05,10,43,22.90
2016,06,05,10,44,22.90
2016,06,05,10,45,22.90
2016,06,05,10,46,22.80
2016,06,05,10,47,22.80
2016,06,05,10,48,22.80
2016,06,05,10,49,22.80
2016,06,05,10,50,22.70
2016,06,05,10,51,22.80
2016,06,05,10,52,22.80
2016,06,05,10,53,22.90
2016,06,05,10,54,22.90
2016,06,05,10,55,23.00
2016,06,05,10,56,23.20
2016,06,05,10,57,23.30
2016,06,05,10,58,23.30
2016,06,05,10,59,23.30
2016,06,05,11,00,23.30
2016,06,05,11,01,23.30
2016,06,05,11,02,23.30
2016,06,05,11,03,23.30
2016,06,05,11,04,23.30
2016,06,05,11,05,23.40
2016,06,05,11,06,23.50
2016,06,05,11,07,23.60
2016,06,05,11,08,23.70
2016,06,05,11,09,23.70
2016,06,05,11,10,23.80
2016,06,05,11,11,23.80
2016,06,05,11,12,23.90
2016,06,05,11,13,24.00
2016,06,05,11,14,24.10
2016,06,05,11,15,24.20
2016,06,05,11,16,24.40
2016,06,05,11,17,24.40
2016,06,05,11,18,24.40
2016,06,05,11,19,24.40
2016,06,05,11,20,24.30
2016,06,05,11,21,24.20
2016,06,05,11,22,24.20
2016,06,05,11,23,24.20
2016,06,05,11,24,24.10
2016,06,05,11,25,24.10
2016,06,05,11,26,24.10
2016,06,05,11,27,24.10
2016,06,05,11,28,24.10
2016,06,05,11,29,24.00
2016,06,05,11,30,23.90
2016,06,05,11,31,23.80
2016,06,05,11,32,23.70
2016,06,05,11,33,23.70
2016,06,05,11,34,23.70
2016,06,05,11,35,23.80
2016,06,05,11,36,23.90
2016,06,05,11,37,24.00
2016,06,05,11,38,24.10
2016,06,05,11,39,24.20
2016,06,05,11,40,24.30
2016,06,05,11,41,24.40
2016,06,05,11,42,24.50
2016,06,05,11,43,24.70
2016,06,05,11,44,24.70
2016,06,05,11,45,24.80
2016,06,05,11,46,24.70
2016,06,05,11,47,24.70
2016,06,05,11,48,24.80
2016,06,05,11,49,24.80
2016,06,05,11,50,24.80
2016,06,05,11,51,24.80
2016,06,05,11,52,24.70
2016,06,05,11,53,24.60
2016,06,05,11,54,24.60
2016,06,05,11,55,24.50
2016,06,05,11,56,24.40
2016,06,05,11,57,24.20
2016,06,05,11,58,24.10
2016,06,05,11,59,24.10
2016,06,05,12,00,24.10
2016,06,05,12,01,24.10
2016,06,05,12,02,24.10
2016,06,05,12,03,24.20
2016,06,05,12,04,24.30
2016,06,05,12,05,24.40
2016,06,05,12,06,24.50
2016,06,05,12,07,24.70
2016,06,05,12,08,24.80
2016,06,05,12,09,24.90
2016,06,05,12,10,25.10
2016,06,05,12,11,25.30
2016,06,05,12,12,25.40
2016,06,05,12,13,25.60
2016,06,05,12,14,25.70
2016,06,05,12,15,25.80
2016,06,05,12,16,25.90
2016,06,05,12,17,25.90
2016,06,05,12,18,25.90
2016,06,05,12,19,26.00
2016,06,05,12,20,26.00
2016,06,05,12,21,25.90
2016,06,05,12,22,25.90
2016,06,05,12,23,25.90
2016,06,05,12,24,25.70
2016,06,05,12,25,25.80
2016,06,05,12,26,25.80
2016,06,05,12,27,25.80
2016,06,05,12,28,25.70
2016,06,05,12,29,25.70
2016,06,05,12,30,25.70
2016,06,05,12,31,25.60
2016,06,05,12,32,25.60
2016,06,05,12,33,25.60
2016,06,05,12,34,25.50
2016,06,05,12,35,25.50
2016,06,05,12,36,25.50
2016,06,05,12,37,25.50
2016,06,05,12,38,25.40
2016,06,05,12,39,25.40
2016,06,05,12,40,25.40
2016,06,05,12,41,25.30
2016,06,05,12,42,25.30
2016,06,05,12,43,25.40
2016,06,05,12,44,25.50
2016,06,05,12,45,25.60
2016,06,05,12,46,25.80
2016,06,05,12,47,25.90
2016,06,05,12,48,25.90
2016,06,05,12,49,26.00
2016,06,05,12,50,26.00
2016,06,05,12,51,25.90
2016,06,05,12,52,25.80
2016,06,05,12,53,25.70
2016,06,05,12,54,25.60
2016,06,05,12,55,25.60
2016,06,05,12,56,25.60
2016,06,05,12,57,25.60
2016,06,05,12,58,25.70
2016,06,05,12,59,25.80
2016,06,05,13,00,25.80
2016,06,05,13,01,25.80
2016,06,05,13,02,25.80
2016,06,05,13,03,25.70
2016,06,05,13,04,25.80
2016,06,05,13,05,25.80
2016,06,05,13,06,25.90
2016,06,05,13,07,25.90
2016,06,05,13,08,25.90
2016,06,05,13,09,25.90
2016,06,05,13,10,25.90
2016,06,05,13,11,25.90
2016,06,05,13,12,25.90
2016,06,05,13,13,25.90
2016,06,05,13,14,26.10
2016,06,05,13,15,26.20
2016,06,05,13,16,26.40
2016,06,05,13,17,26.50
2016,06,05,13,18,26.60
2016,06,05,13,19,26.70
2016,06,05,13,20,26.80
2016,06,05,13,21,27.00
2016,06,05,13,22,27.10
2016,06,05,13,23,27.10
2016,06,05,13,24,27.20
2016,06,05,13,25,27.20
2016,06,05,13,26,27.20
2016,06,05,13,27,27.20
2016,06,05,13,28,27.20
2016,06,05,13,29,27.10
2016,06,05,13,30,27.00
2016,06,05,13,31,26.90
2016,06,05,13,32,26.90
2016,06,05,13,33,26.80
2016,06,05,13,34,26.80
2016,06,05,13,35,26.80
2016,06,05,13,36,26.80
2016,06,05,13,37,26.80
2016,06,05,13,38,26.70
2016,06,05,13,39,26.80
2016,06,05,13,40,27.00
2016,06,05,13,41,27.10
2016,06,05,13,42,27.20
2016,06,05,13,43,27.20
2016,06,05,13,44,27.10
2016,06,05,13,45,27.10
2016,06,05,13,46,27.20
2016,06,05,13,47,27.20
2016,06,05,13,48,27.30
2016,06,05,13,49,27.30
2016,06,05,13,50,27.30
2016,06,05,13,51,27.30
2016,06,05,13,52,27.50
2016,06,05,13,53,27.60
2016,06,05,13,54,27.60
2016,06,05,13,55,27.60
2016,06,05,13,56,27.50
2016,06,05,13,57,27.40
2016,06,05,13,58,27.50
2016,06,05,13,59,27.60
2016,06,05,14,00,27.70
2016,06,05,14,01,27.80
2016,06,05,14,02,27.90
2016,06,05,14,03,28.00
2016,06,05,14,04,28.10
2016,06,05,14,05,28.20
2016,06,05,14,06,28.30
2016,06,05,14,07,28.30
2016,06,05,14,08,28.20
2016,06,05,14,09,28.00
2016,06,05,14,10,27.90
2016,06,05,14,11,27.80
2016,06,05,14,12,27.90
2016,06,05,14,13,28.00
2016,06,05,14,14,28.00
2016,06,05,14,15,28.00
2016,06,05,14,16,28.00
2016,06,05,14,17,28.00
2016,06,05,14,18,28.00
2016,06,05,14,19,28.10
2016,06,05,14,20,28.20
2016,06,05,14,21,28.20
2016,06,05,14,22,28.20
2016,06,05,14,23,28.20
2016,06,05,14,24,28.20
2016,06,05,14,25,28.10
2016,06,05,14,26,28.10
2016,06,05,14,27,28.20
2016,06,05,14,28,28.20
2016,06,05,14,29,28.20
2016,06,05,14,30,28.20
2016,06,05,14,31,28.20
2016,06,05,14,32,28.20
2016,06,05,14,33,28.10
2016,06,05,14,34,28.20
2016,06,05,14,35,28.20
2016,06,05,14,36,28.20
2016,06,05,14,37,28.20
2016,06,05,14,38,28.20
2016,06,05,14,39,28.30
2016,06,05,14,40,28.40
2016,06,05,14,41,28.50
2016,06,05,14,42,28.60
2016,06,05,14,43,28.70
2016,06,05,14,44,28.80
2016,06,05,14,45,28.80
2016,06,05,14,46,28.90
2016,06,05,14,47,28.90
2016,06,05,14,48,28.90
2016,06,05,14,49,28.80
2016,06,05,14,50,28.70
2016,06,05,14,51,28.70
2016,06,05,14,52,28.70
2016,06,05,14,53,28.70
2016,06,05,14,54,28.70
2016,06,05,14,55,28.70
2016,06,05,14,56,28.70
2016,06,05,14,57,28.70
2016,06,05,14,58,28.70
2016,06,05,14,59,28.80
2016,06,05,15,00,28.70
2016,06,05,15,01,28.70
2016,06,05,15,02,28.70
2016,06,05,15,03,28.60
2016,06,05,15,04,28.60
2016,06,05,15,05,28.60
2016,06,05,15,06,28.60
2016,06,05,15,07,28.60
2016,06,05,15,08,28.70
2016,06,05,15,09,28.80
2016,06,05,15,10,28.90
2016,06,05,15,11,29.00
2016,06,05,15,12,29.10
2016,06,05,15,13,29.10
2016,06,05,15,14,29.20
2016,06,05,15,15,29.10
2016,06,05,15,16,29.10
2016,06,05,15,17,29.10
2016,06,05,15,18,29.10
2016,06,05,15,19,29.00
2016,06,05,15,20,28.90
2016,06,05,15,21,28.90
2016,06,05,15,22,28.90
2016,06,05,15,23,28.90
2016,06,05,15,24,28.90
2016,06,05,15,25,28.90
2016,06,05,15,26,28.90
2016,06,05,15,27,29.00
2016,06,05,15,28,29.10
2016,06,05,15,29,29.20
2016,06,05,15,30,29.20
2016,06,05,15,31,29.30
2016,06,05,15,32,29.30
2016,06,05,15,33,29.30
2016,06,05,15,34,29.30
2016,06,05,15,35,29.30
2016,06,05,15,36,29.30
2016,06,05,15,37,29.40
2016,06,05,15,38,29.40
2016,06,05,15,39,29.50
2016,06,05,15,40,29.60
2016,06,05,15,41,29.70
2016,06,05,15,42,29.80
2016,06,05,15,43,29.90
2016,06,05,15,44,30.10
2016,06,05,15,45,30.20
2016,06,05,15,46,30.30
2016,06,05,15,47,30.40
2016,06,05,15,48,30.40
2016,06,05,15,49,30.50
2016,06,05,15,50,30.40
2016,06,05,15,51,30.30
2016,06,05,15,52,30.10
2016,06,05,15,53,29.90
2016,06,05,15,54,29.80
2016,06,05,15,55,29.80
2016,06,05,15,56,29.80
2016,06,05,15,57,29.90
2016,06,05,15,58,30.00
2016,06,05,15,59,30.10
2016,06,05,16,00,30.20
2016,06,05,16,01,30.30
2016,06,05,16,02,30.30
2016,06,05,16,03,30.40
2016,06,05,16,04,30.60
2016,06,05,16,05,30.60
2016,06,05,16,06,30.70
2016,06,05,16,07,30.80
2016,06,05,16,08,30.80
2016,06,05,16,09,30.90
2016,06,05,16,10,31.00
2016,06,05,16,11,31.10
2016,06,05,16,12,31.20
2016,06,05,16,13,31.30
2016,06,05,16,14,31.40
2016,06,05,16,15,31.40
2016,06,05,16,16,31.40
2016,06,05,16,17,31.40
2016,06,05,16,18,31.20
2016,06,05,16,19,31.00
2016,06,05,16,20,30.90
2016,06,05,16,21,30.80
2016,06,05,16,22,30.60
2016,06,05,16,23,30.50
2016,06,05,16,24,30.30
2016,06,05,16,25,30.20
2016,06,05,16,26,30.20
2016,06,05,16,27,30.20
2016,06,05,16,28,30.20
2016,06,05,16,29,30.20
2016,06,05,16,30,30.20
2016,06,05,16,31,30.30
2016,06,05,16,32,30.30
2016,06,05,16,33,30.40
2016,06,05,16,34,30.60
2016,06,05,16,35,30.70
2016,06,05,16,36,30.70
2016,06,05,16,37,30.80
2016,06,05,16,38,30.80
2016,06,05,16,39,30.80
2016,06,05,16,40,30.80
2016,06,05,16,41,30.70
2016,06,05,16,42,30.70
2016,06,05,16,43,30.70
2016,06,05,16,44,30.70
2016,06,05,16,45,30.70
2016,06,05,16,46,30.70
2016,06,05,16,47,30.70
2016,06,05,16,48,30.60
2016,06,05,16,49,30.60
2016,06,05,16,50,30.60
2016,06,05,16,51,30.70
2016,06,05,16,52,30.70
2016,06,05,16,53,30.70
2016,06,05,16,54,30.70
2016,06,05,16,55,30.80
2016,06,05,16,56,30.90
2016,06,05,16,57,31.00
2016,06,05,16,58,31.10
2016,06,05,16,59,31.20
2016,06,05,17,00,31.20
2016,06,05,17,01,31.20
2016,06,05,17,02,31.20
2016,06,05,17,03,31.20
2016,06,05,17,04,31.30
2016,06,05,17,05,31.30
2016,06,05,17,06,31.30
2016,06,05,17,07,31.30
2016,06,05,17,08,31.30
2016,06,05,17,09,31.30
2016,06,05,17,10,31.20
2016,06,05,17,11,31.10
2016,06,05,17,12,31.00
2016,06,05,17,13,30.90
2016,06,05,17,14,30.90
2016,06,05,17,15,30.80
2016,06,05,17,16,30.80
2016,06,05,17,17,30.80
2016,06,05,17,18,30.80
2016,06,05,17,19,30.80